Time,TemperatureF,DewpointF,PressureIn,WindDirection,WindDirectionDegrees,WindSpeedMPH,WindSpeedGustMPH,Humidity,HourlyPrecipIn,Conditions,Clouds,dailyrainin,SoftwareType,DateUTC
2017-02-22 00:02:00,40.0,26.0,-100.00,SW,230,11.0,22.0,58,-99.99,,,-99.99,,2017-02-22 07:02:00,
2017-02-22 00:17:00,40.0,26.0,-100.00,SW,230,11.0,22.0,58,-99.99,,,-99.99,,2017-02-22 07:17:00,
2017-02-22 00:21:00,41.0,27.0,-100.00,WSW,257,14.0,19.0,56,-99.99,,,-99.99,,2017-02-22 07:21:00,
2017-02-22 01:02:00,41.0,27.0,-100.00,WSW,257,14.0,19.0,56,-99.99,,,-99.99,,2017-02-22 08:02:00,
2017-02-22 01:21:00,39.0,25.0,-100.00,West,261,11.0,19.0,58,-99.99,,,-99.99,,2017-02-22 08:21:00,
2017-02-22 01:50:00,39.0,25.0,-100.00,West,261,11.0,19.0,58,-99.99,,,-99.99,,2017-02-22 08:50:00,
2017-02-22 02:07:00,39.0,25.0,-100.00,West,261,11.0,19.0,58,-99.99,,,-99.99,,2017-02-22 09:07:00,
2017-02-22 02:21:00,39.0,24.0,-100.00,WSW,248,7.0,15.0,54,-99.99,,,-99.99,,2017-02-22 09:21:00,
2017-02-22 02:50:00,39.0,24.0,-100.00,WSW,248,7.0,15.0,54,-99.99,,,-99.99,,2017-02-22 09:50:00,
2017-02-22 03:07:00,39.0,24.0,-100.00,WSW,248,7.0,15.0,54,-99.99,,,-99.99,,2017-02-22 10:07:00,
2017-02-22 03:59:00,40.0,23.0,-100.00,West,259,9.0,-999.0,51,-99.99,,,-99.99,,2017-02-22 10:59:00,
2017-02-22 04:16:00,40.0,23.0,-100.00,West,259,9.0,-999.0,51,-99.99,,,-99.99,,2017-02-22 11:16:00,
2017-02-22 04:21:00,40.0,22.0,-100.00,West,277,12.0,20.0,48,-99.99,,,-99.99,,2017-02-22 11:21:00,
2017-02-22 05:07:00,40.0,22.0,-100.00,West,277,12.0,20.0,48,-99.99,,,-99.99,,2017-02-22 12:07:00,
2017-02-22 05:59:00,38.0,23.0,-100.00,North,-9999,-999.9,-999.0,54,-99.99,,,-99.99,,2017-02-22 12:59:00,
2017-02-22 06:16:00,38.0,23.0,-100.00,WNW,285,8.0,-999.0,54,-99.99,,,-99.99,,2017-02-22 13:16:00,
2017-02-22 06:21:00,37.0,24.0,-100.00,NNW,336,14.0,18.0,58,-99.99,,,-99.99,,2017-02-22 13:21:00,
2017-02-22 07:08:00,37.0,24.0,-100.00,NNW,336,14.0,18.0,58,-99.99,,,-99.99,,2017-02-22 14:08:00,
2017-02-22 07:21:00,36.0,26.0,-100.00,NW,309,14.0,20.0,66,-99.99,,,-99.99,,2017-02-22 14:21:00,
2017-02-22 08:08:00,36.0,26.0,-100.00,NW,309,14.0,20.0,66,-99.99,,,-99.99,,2017-02-22 15:08:00,
2017-02-22 08:59:00,35.0,27.0,-100.00,NNW,343,14.0,21.0,72,-99.99,,,-99.99,,2017-02-22 15:59:00,
2017-02-22 09:15:00,35.0,27.0,-100.00,NNW,343,14.0,21.0,72,-99.99,,,-99.99,,2017-02-22 16:15:00,
2017-02-22 09:21:00,37.0,29.0,-100.00,NNW,331,-999.9,-999.0,72,-99.99,,,-99.99,,2017-02-22 16:21:00,
2017-02-22 09:49:00,37.0,29.0,-100.00,NNW,331,11.0,19.0,72,-99.99,,,-99.99,,2017-02-22 16:49:00,
2017-02-22 10:09:00,37.0,29.0,-100.00,NNW,331,11.0,19.0,72,-99.99,,,-99.99,,2017-02-22 17:09:00,
2017-02-22 10:21:00,36.0,29.0,-100.00,NW,325,15.0,20.0,75,-99.99,,,-99.99,,2017-02-22 17:21:00,
2017-02-22 10:50:00,36.0,29.0,-100.00,NW,325,15.0,20.0,75,-99.99,,,-99.99,,2017-02-22 17:50:00,
2017-02-22 11:07:00,36.0,29.0,-100.00,NW,325,15.0,20.0,75,-99.99,,,-99.99,,2017-02-22 18:07:00,
2017-02-22 11:51:00,36.0,31.0,-100.00,NW,323,11.0,20.0,81,-99.99,,,-99.99,,2017-02-22 18:51:00,
2017-02-22 12:08:00,36.0,31.0,-100.00,NW,323,11.0,-999.0,81,-99.99,,,-99.99,,2017-02-22 19:08:00,
2017-02-22 12:59:00,37.0,32.0,-100.00,NW,318,10.0,19.0,81,-99.99,,,-99.99,,2017-02-22 19:59:00,
2017-02-22 13:16:00,37.0,32.0,-100.00,NW,318,10.0,19.0,81,-99.99,,,-99.99,,2017-02-22 20:16:00,
2017-02-22 14:00:00,35.0,34.0,-100.00,NNE,17,5.0,11.0,97,-99.99,,,-99.99,,2017-02-22 21:00:00,
2017-02-22 14:16:00,35.0,34.0,-100.00,NNE,17,5.0,11.0,97,-99.99,,,-99.99,,2017-02-22 21:16:00,